Moron de la Frontera, Spain

11:00 AM CEST on July 21, 2017 (GMT +0200)
Moron Air Base

Weather History for LEMO - September, 2012

Change the Weather History Date:

Sunday, September 2, 2012

  Actual Average Record
Temperature  
Mean Temperature 78 °F -  
Max Temperature 95 °F 84 °F 104 °F (2006)
Min Temperature 60 °F 62 °F 59 °F (1997)
Cooling Degree Days 12    
Growing Degree Days 28 (Base 50)    
Moisture  
Dew Point 52 °F    
Average Humidity 39    
Maximum Humidity 57    
Minimum Humidity 25    
Precipitation  
Precipitation 0.00 in - - ()
Sea Level Pressure  
Sea Level Pressure 29.99 in    
Wind  
Wind Speed 3 mph ()    
Max Wind Speed 10 mph    
Max Gust Speed -    
Averages and records for this station are not official NWS values.
T = Trace of Precipitation, MM = Missing Value Source: Averaged Metar Reports

Daily Weather History Graph

Daily Weather History Graph

Search for Another Location

Airport or City:

Trip Planner

Search our weather history database for the weather conditions in past years. The results will help you decide how hot, cold, wet, or windy it might be!

Date:

Astronomy

Sep. 02, 2012 Rise Set
Actual Time 7:54 AM CEST 8:49 PM CEST
Civil Twilight 7:27 AM CEST 9:15 PM CEST
Nautical Twilight 6:56 AM CEST 9:47 PM CEST
Astronomical Twilight 6:23 AM CEST 10:19 PM CEST
Moon 9:34 PM CEST (9/2) 9:44 AM CEST (9/2)
Length of Visible Light 13h 48m
Length of Day
12h 55m
Waning Gibbous, 96% of the Moon is Illuminated
Sep 2
Waning Gibbous
Sep 8
Last Quarter
Sep 16
New
Sep 22
First Quarter
Sep 30
Full

Hourly Weather History & Observations

Time (CEST) Temp. Heat Index Dew Point Humidity Pressure Visibility Wind Dir Wind Speed Gust Speed Precip Events Conditions
12:00 AM 78.8 °F - 46.4 °F 32% 29.98 in - Variable 2.3 mph - N/A   Clear
1:00 AM 73.4 °F - 42.8 °F 33% 29.98 in - Variable 2.3 mph - N/A   Clear
2:00 AM 71.6 °F - 42.8 °F 35% 29.98 in - Calm Calm - N/A   Clear
3:00 AM 71.6 °F - 41.0 °F 33% 29.98 in - Variable 1.2 mph - N/A   Clear
4:00 AM 68.0 °F - 44.6 °F 43% 29.98 in - East 2.3 mph - N/A   Clear
5:00 AM 66.2 °F - 41.0 °F 40% 29.98 in - Calm Calm - N/A   Clear
6:00 AM 64.4 °F - 41.0 °F 42% 29.98 in - Calm Calm - N/A   Clear
7:00 AM 62.6 °F - 42.8 °F 48% 29.98 in - Calm Calm - N/A   Clear
8:00 AM 60.8 °F - 41.0 °F 48% 30.01 in - ENE 4.6 mph - N/A   Clear
9:00 AM 68.0 °F - 50.0 °F 52% 30.01 in - Calm Calm - N/A   Clear
10:00 AM 73.4 °F - 57.2 °F 57% 30.01 in - Variable 1.2 mph - N/A   Clear
11:00 AM 80.6 °F 81.1 °F 59.0 °F 48% 30.04 in - East 5.8 mph - N/A   Clear
12:00 PM 86.0 °F 84.9 °F 57.2 °F 37% 30.04 in - East 5.8 mph - N/A   Clear
1:00 PM 89.6 °F 88.9 °F 59.0 °F 36% 30.01 in - ENE 10.4 mph - N/A   Clear
2:00 PM 91.4 °F 89.9 °F 57.2 °F 31% 30.01 in - ENE 9.2 mph - N/A   Clear
3:00 PM 93.2 °F 91.3 °F 55.4 °F 28% 29.98 in - NE 9.2 mph - N/A   Clear
4:00 PM 95.0 °F 93.7 °F 57.2 °F 28% 29.98 in - NE 8.1 mph - N/A   Clear
5:00 PM 95.0 °F 94.4 °F 59.0 °F 30% 29.95 in - NNE 9.2 mph - N/A   Clear
6:00 PM 95.0 °F 94.4 °F 59.0 °F 30% 29.95 in - NNE 4.6 mph - N/A   Clear
7:00 PM 95.0 °F 92.7 °F 53.6 °F 25% 29.95 in - NNE 9.2 mph - N/A   Clear
8:00 PM 93.2 °F 93.3 °F 60.8 °F 34% 29.95 in - East 6.9 mph - N/A   Clear
9:00 PM 87.8 °F 87.1 °F 59.0 °F 38% 29.98 in - ESE 9.2 mph - N/A   Clear
10:00 PM 84.2 °F 84.4 °F 60.8 °F 45% 30.01 in - ESE 5.8 mph - N/A   Clear
11:00 PM 78.8 °F - 62.6 °F 57% 30.04 in - West 5.8 mph - N/A   Clear